Time,TemperatureF,DewpointF,PressureIn,WindDirection,WindDirectionDegrees,WindSpeedMPH,WindSpeedGustMPH,Humidity,HourlyPrecipIn,Conditions,Clouds,dailyrainin,SoftwareType,DateUTC
2013-11-24 00:02:00,20.3,15.4,30.45,NW,311,3.0,6.0,81,0.00,,,0.00,VWS V14.01,2013-11-24 05:02:00,
2013-11-24 00:07:00,20.3,15.1,30.45,NW,326,5.0,7.0,80,0.00,,,0.00,VWS V14.01,2013-11-24 05:07:00,
2013-11-24 00:12:00,20.3,15.1,30.45,NNW,330,0.0,5.0,80,0.00,,,0.00,VWS V14.01,2013-11-24 05:12:00,
2013-11-24 00:17:00,20.3,15.1,30.45,NW,326,6.0,6.0,80,0.00,,,0.00,VWS V14.01,2013-11-24 05:17:00,
2013-11-24 00:22:00,20.2,15.0,30.45,North,356,1.0,7.0,80,0.00,,,0.00,VWS V14.01,2013-11-24 05:22:00,
2013-11-24 00:27:00,20.2,15.0,30.45,NNE,20,2.0,7.0,80,0.00,,,0.00,VWS V14.01,2013-11-24 05:27:00,
2013-11-24 00:32:00,20.0,14.8,30.44,NNW,347,5.0,7.0,80,0.00,,,0.00,VWS V14.01,2013-11-24 05:32:00,
2013-11-24 00:42:00,19.9,14.7,30.44,NNW,342,1.0,6.0,80,0.00,,,0.00,VWS V14.01,2013-11-24 05:42:00,
2013-11-24 00:47:00,19.7,14.8,30.44,NNW,333,3.0,4.0,81,0.00,,,0.00,VWS V14.01,2013-11-24 05:47:00,
2013-11-24 00:52:00,19.7,14.8,30.44,NNW,333,1.0,3.0,81,0.00,,,0.00,VWS V14.01,2013-11-24 05:52:00,
2013-11-24 01:02:00,19.9,15.3,30.44,NNW,333,3.0,5.0,82,0.00,,,0.00,VWS V14.01,2013-11-24 06:02:00,
2013-11-24 01:07:00,19.9,15.3,30.44,NW,319,2.0,6.0,82,0.00,,,0.00,VWS V14.01,2013-11-24 06:07:00,
2013-11-24 01:12:00,19.9,15.3,30.44,NW,322,2.0,5.0,82,0.00,,,0.00,VWS V14.01,2013-11-24 06:12:00,
2013-11-24 01:17:00,20.0,15.4,30.45,NW,322,0.0,3.0,82,0.00,,,0.00,VWS V14.01,2013-11-24 06:17:00,
2013-11-24 01:27:00,20.0,15.7,30.45,NW,322,0.0,2.0,83,0.00,,,0.00,VWS V14.01,2013-11-24 06:27:00,
2013-11-24 01:32:00,20.0,15.7,30.44,NW,322,1.0,3.0,83,0.00,,,0.00,VWS V14.01,2013-11-24 06:32:00,
2013-11-24 01:37:00,20.0,15.7,30.44,NW,322,0.0,2.0,83,0.00,,,0.00,VWS V14.01,2013-11-24 06:37:00,
2013-11-24 01:47:00,19.7,15.4,30.44,NW,322,0.0,2.0,83,0.00,,,0.00,VWS V14.01,2013-11-24 06:47:00,
2013-11-24 01:52:00,19.7,15.4,30.44,NW,322,0.0,1.0,83,0.00,,,0.00,VWS V14.01,2013-11-24 06:52:00,
2013-11-24 01:57:00,19.5,15.2,30.44,NW,322,0.0,2.0,83,0.00,,,0.00,VWS V14.01,2013-11-24 06:57:00,
2013-11-24 02:02:00,19.4,14.8,30.44,NW,322,0.0,2.0,82,0.00,,OVC060,0.00,VWS V14.01,2013-11-24 07:02:00,
2013-11-24 02:12:00,18.9,14.3,30.44,NW,322,0.0,0.0,82,0.00,,OVC060,0.00,VWS V14.01,2013-11-24 07:12:00,
2013-11-24 02:17:00,19.1,14.5,30.45,NW,322,0.0,2.0,82,0.00,,OVC060,0.00,VWS V14.01,2013-11-24 07:17:00,
2013-11-24 02:22:00,18.9,14.3,30.45,NW,322,0.0,1.0,82,0.00,,OVC060,0.00,VWS V14.01,2013-11-24 07:22:00,
2013-11-24 02:27:00,18.8,14.2,30.45,NW,322,0.0,0.0,82,0.00,,OVC060,0.00,VWS V14.01,2013-11-24 07:27:00,
2013-11-24 02:32:00,18.8,14.2,30.45,NW,322,0.0,0.0,82,0.00,,OVC060,0.00,VWS V14.01,2013-11-24 07:32:00,
2013-11-24 02:37:00,18.6,14.0,30.45,NW,320,2.0,3.0,82,0.00,,OVC060,0.00,VWS V14.01,2013-11-24 07:37:00,
2013-11-24 02:42:00,18.6,14.0,30.45,West,261,8.0,8.0,82,0.00,,OVC060,0.00,VWS V14.01,2013-11-24 07:42:00,
2013-11-24 02:47:00,18.9,14.3,30.45,West,265,0.0,8.0,82,0.00,,OVC060,0.00,VWS V14.01,2013-11-24 07:47:00,
2013-11-24 02:52:00,19.2,14.6,30.45,West,265,0.0,2.0,82,0.00,,OVC060,0.00,VWS V14.01,2013-11-24 07:52:00,
2013-11-24 02:57:00,19.4,14.8,30.45,NW,304,0.0,2.0,82,0.00,,OVC060,0.00,VWS V14.01,2013-11-24 07:57:00,
2013-11-24 03:02:00,19.5,14.9,30.45,NW,320,0.0,0.0,82,0.00,,OVC060,0.00,VWS V14.01,2013-11-24 08:02:00,
2013-11-24 03:07:00,19.5,14.9,30.45,WNW,288,0.0,1.0,82,0.00,,OVC060,0.00,VWS V14.01,2013-11-24 08:07:00,
2013-11-24 03:12:00,19.5,14.9,30.45,WNW,301,0.0,0.0,82,0.00,,OVC060,0.00,VWS V14.01,2013-11-24 08:12:00,
2013-11-24 03:17:00,19.5,14.9,30.46,NW,309,0.0,1.0,82,0.00,,OVC060,0.00,VWS V14.01,2013-11-24 08:17:00,
2013-11-24 03:22:00,19.4,14.2,30.46,WSW,244,0.0,0.0,80,0.00,,OVC060,0.00,VWS V14.01,2013-11-24 08:22:00,
2013-11-24 03:27:00,18.8,13.7,30.46,WSW,257,0.0,0.0,80,0.00,,OVC060,0.00,VWS V14.01,2013-11-24 08:27:00,
2013-11-24 03:32:00,18.4,13.3,30.46,West,268,10.0,12.0,80,0.00,,OVC060,0.00,VWS V14.01,2013-11-24 08:32:00,
2013-11-24 03:37:00,18.1,13.0,30.46,West,267,0.0,10.0,80,0.00,,OVC060,0.00,VWS V14.01,2013-11-24 08:37:00,
2013-11-24 03:47:00,18.0,12.9,30.46,West,272,3.0,8.0,80,0.00,,OVC060,0.00,VWS V14.01,2013-11-24 08:47:00,
2013-11-24 03:57:00,17.7,12.3,30.46,WSW,253,5.0,7.0,79,0.00,,OVC060,0.00,VWS V14.01,2013-11-24 08:57:00,
2013-11-24 04:02:00,17.5,11.5,30.46,West,265,0.0,5.0,77,0.00,,OVC049,0.00,VWS V14.01,2013-11-24 09:02:00,
2013-11-24 04:07:00,17.3,11.3,30.46,West,274,0.0,5.0,77,0.00,,OVC049,0.00,VWS V14.01,2013-11-24 09:07:00,
2013-11-24 04:12:00,17.3,11.1,30.46,WSW,254,0.0,6.0,76,0.00,,OVC049,0.00,VWS V14.01,2013-11-24 09:12:00,
2013-11-24 04:17:00,17.2,10.6,30.47,WSW,257,0.0,11.0,75,0.00,,OVC049,0.00,VWS V14.01,2013-11-24 09:17:00,
2013-11-24 04:22:00,17.0,10.8,30.47,WSW,257,1.0,5.0,76,0.00,,OVC049,0.00,VWS V14.01,2013-11-24 09:22:00,
2013-11-24 04:27:00,16.7,10.2,30.47,West,278,0.0,10.0,75,0.00,,OVC049,0.00,VWS V14.01,2013-11-24 09:27:00,
2013-11-24 04:32:00,16.7,9.9,30.47,West,265,3.0,6.0,74,0.00,,OVC049,0.00,VWS V14.01,2013-11-24 09:32:00,
2013-11-24 04:37:00,16.5,9.7,30.47,West,264,7.0,10.0,74,0.00,,OVC049,0.00,VWS V14.01,2013-11-24 09:37:00,
2013-11-24 04:42:00,16.4,9.6,30.47,West,267,6.0,11.0,74,0.00,,OVC049,0.00,VWS V14.01,2013-11-24 09:42:00,
2013-11-24 04:47:00,16.2,9.7,30.46,WSW,258,6.0,11.0,75,0.00,,OVC049,0.00,VWS V14.01,2013-11-24 09:47:00,
2013-11-24 04:57:00,16.1,9.6,30.46,West,265,6.0,8.0,75,0.00,,OVC049,0.00,VWS V14.01,2013-11-24 09:57:00,
2013-11-24 05:02:00,16.2,9.7,30.46,West,265,0.0,8.0,75,0.00,,OVC047,0.00,VWS V14.01,2013-11-24 10:02:00,
2013-11-24 05:07:00,16.4,9.9,30.46,West,263,7.0,8.0,75,0.00,,OVC047,0.00,VWS V14.01,2013-11-24 10:07:00,
2013-11-24 05:12:00,16.4,9.9,30.46,West,274,6.0,8.0,75,0.00,,OVC047,0.00,VWS V14.01,2013-11-24 10:12:00,
2013-11-24 05:17:00,16.5,10.0,30.46,WNW,289,4.0,7.0,75,0.00,,OVC047,0.00,VWS V14.01,2013-11-24 10:17:00,
2013-11-24 05:22:00,16.5,10.3,30.46,West,274,8.0,8.0,76,0.00,,OVC047,0.00,VWS V14.01,2013-11-24 10:22:00,
2013-11-24 05:27:00,16.5,10.3,30.46,WNW,298,2.0,8.0,76,0.00,,OVC047,0.00,VWS V14.01,2013-11-24 10:27:00,
2013-11-24 05:32:00,16.5,10.6,30.46,West,272,6.0,7.0,77,0.00,,OVC047,0.00,VWS V14.01,2013-11-24 10:32:00,
2013-11-24 05:37:00,16.4,10.5,30.46,West,272,6.0,7.0,77,0.00,,OVC047,0.00,VWS V14.01,2013-11-24 10:37:00,
2013-11-24 05:42:00,16.4,10.5,30.46,West,272,0.0,6.0,77,0.00,,OVC047,0.00,VWS V14.01,2013-11-24 10:42:00,
2013-11-24 05:47:00,16.2,10.0,30.46,West,272,0.0,3.0,76,0.00,,OVC047,0.00,VWS V14.01,2013-11-24 10:47:00,
2013-11-24 05:52:00,16.1,9.6,30.46,West,272,1.0,6.0,75,0.00,,OVC047,0.00,VWS V14.01,2013-11-24 10:52:00,
2013-11-24 05:57:00,15.9,9.4,30.46,West,272,1.0,4.0,75,0.00,,OVC047,0.00,VWS V14.01,2013-11-24 10:57:00,
2013-11-24 06:02:00,15.7,9.2,30.46,West,272,1.0,3.0,75,0.00,,,0.00,VWS V14.01,2013-11-24 11:02:00,
2013-11-24 06:07:00,15.6,9.1,30.46,West,272,0.0,3.0,75,0.00,,,0.00,VWS V14.01,2013-11-24 11:07:00,
2013-11-24 06:12:00,15.4,8.9,30.46,West,272,0.0,1.0,75,0.00,,,0.00,VWS V14.01,2013-11-24 11:12:00,
2013-11-24 06:22:00,15.1,8.6,30.46,West,272,0.0,0.0,75,0.00,,,0.00,VWS V14.01,2013-11-24 11:22:00,
2013-11-24 06:27:00,14.9,8.4,30.46,West,272,0.0,0.0,75,0.00,,,0.00,VWS V14.01,2013-11-24 11:27:00,
2013-11-24 06:32:00,14.8,8.3,30.46,West,272,0.0,1.0,75,0.00,,,0.00,VWS V14.01,2013-11-24 11:32:00,
2013-11-24 06:42:00,14.4,7.9,30.46,West,272,0.0,0.0,75,0.00,,,0.00,VWS V14.01,2013-11-24 11:42:00,
2013-11-24 06:52:00,14.6,8.1,30.46,West,272,0.0,2.0,75,0.00,,,0.00,VWS V14.01,2013-11-24 11:52:00,
2013-11-24 06:57:00,14.4,7.9,30.46,West,272,0.0,1.0,75,0.00,,,0.00,VWS V14.01,2013-11-24 11:57:00,
2013-11-24 07:02:00,14.4,7.6,30.48,West,272,0.0,2.0,74,0.00,,OVC041,0.00,VWS V14.01,2013-11-24 12:02:00,
2013-11-24 07:07:00,14.4,7.6,30.48,WSW,248,0.0,0.0,74,0.00,,OVC041,0.00,VWS V14.01,2013-11-24 12:07:00,
2013-11-24 07:17:00,14.3,7.2,30.48,WSW,250,0.0,0.0,73,0.00,,OVC041,0.00,VWS V14.01,2013-11-24 12:17:00,
2013-11-24 07:22:00,14.1,7.3,30.48,WSW,250,5.0,6.0,74,0.00,,OVC041,0.00,VWS V14.01,2013-11-24 12:22:00,
2013-11-24 07:32:00,14.0,7.2,30.48,WSW,246,4.0,7.0,74,0.00,,OVC041,0.00,VWS V14.01,2013-11-24 12:32:00,
2013-11-24 07:37:00,14.0,7.2,30.48,WSW,246,2.0,6.0,74,0.00,,OVC041,0.00,VWS V14.01,2013-11-24 12:37:00,
2013-11-24 07:47:00,14.0,7.2,30.49,WSW,247,3.0,6.0,74,0.00,,OVC041,0.00,VWS V14.01,2013-11-24 12:47:00,
2013-11-24 07:52:00,14.0,7.2,30.49,WSW,248,0.0,7.0,74,0.00,,OVC041,0.00,VWS V14.01,2013-11-24 12:52:00,
2013-11-24 08:02:00,14.3,7.6,30.50,WSW,248,1.0,3.0,74,0.00,,OVC041,0.00,VWS V14.01,2013-11-24 13:02:00,
2013-11-24 08:07:00,14.3,7.2,30.50,WSW,257,0.0,11.0,73,0.00,,OVC041,0.00,VWS V14.01,2013-11-24 13:07:00,
2013-11-24 08:22:00,14.4,7.3,30.51,SW,217,0.0,8.0,73,0.00,,OVC041,0.00,VWS V14.01,2013-11-24 13:22:00,
2013-11-24 08:27:00,14.4,7.3,30.51,SW,232,0.0,6.0,73,0.00,,OVC041,0.00,VWS V14.01,2013-11-24 13:27:00,
2013-11-24 08:32:00,14.3,6.9,30.51,WSW,251,0.0,0.0,72,0.00,,OVC041,0.00,VWS V14.01,2013-11-24 13:32:00,
2013-11-24 08:37:00,14.1,7.1,30.51,SW,233,0.0,9.0,73,0.00,,OVC041,0.00,VWS V14.01,2013-11-24 13:37:00,
2013-11-24 08:42:00,14.1,7.1,30.51,WSW,247,0.0,1.0,73,0.00,,OVC041,0.00,VWS V14.01,2013-11-24 13:42:00,
2013-11-24 08:47:00,14.0,7.0,30.51,SW,234,0.0,1.0,73,0.00,,OVC041,0.00,VWS V14.01,2013-11-24 13:47:00,
2013-11-24 08:57:00,14.0,7.2,30.51,South,172,4.0,7.0,74,0.00,,OVC041,0.00,VWS V14.01,2013-11-24 13:57:00,
2013-11-24 09:07:00,14.6,7.8,30.52,SW,234,5.0,6.0,74,0.00,,OVC039,0.00,VWS V14.01,2013-11-24 14:07:00,
2013-11-24 09:12:00,14.9,8.1,30.52,WSW,258,3.0,5.0,74,0.00,,OVC039,0.00,VWS V14.01,2013-11-24 14:12:00,
2013-11-24 09:17:00,15.4,8.6,30.52,WSW,250,3.0,7.0,74,0.00,,OVC039,0.00,VWS V14.01,2013-11-24 14:17:00,
2013-11-24 09:22:00,16.1,9.3,30.52,WSW,244,0.0,6.0,74,0.00,,OVC039,0.00,VWS V14.01,2013-11-24 14:22:00,
2013-11-24 09:27:00,16.5,9.1,30.52,WSW,251,0.0,6.0,72,0.00,,OVC039,0.00,VWS V14.01,2013-11-24 14:27:00,
2013-11-24 09:32:00,17.0,9.9,30.52,West,263,0.0,5.0,73,0.00,,OVC039,0.00,VWS V14.01,2013-11-24 14:32:00,
2013-11-24 09:37:00,17.3,9.8,30.52,West,267,0.0,2.0,72,0.00,,OVC039,0.00,VWS V14.01,2013-11-24 14:37:00,
2013-11-24 09:42:00,17.3,9.5,30.52,WSW,250,0.0,2.0,71,0.00,,OVC039,0.00,VWS V14.01,2013-11-24 14:42:00,
2013-11-24 09:47:00,17.7,9.9,30.53,WSW,257,0.0,6.0,71,0.00,,OVC039,0.00,VWS V14.01,2013-11-24 14:47:00,
2013-11-24 09:52:00,18.0,9.9,30.53,West,274,0.0,0.0,70,0.00,,OVC039,0.00,VWS V14.01,2013-11-24 14:52:00,
2013-11-24 09:57:00,17.8,9.7,30.53,WSW,246,0.0,3.0,70,0.00,,OVC039,0.00,VWS V14.01,2013-11-24 14:57:00,
2013-11-24 10:07:00,18.8,10.6,30.53,WSW,246,0.0,3.0,70,0.00,,OVC038,0.00,VWS V14.01,2013-11-24 15:07:00,
2013-11-24 10:17:00,18.9,10.4,30.53,WSW,258,0.0,0.0,69,0.00,,OVC038,0.00,VWS V14.01,2013-11-24 15:17:00,
2013-11-24 10:22:00,19.1,10.9,30.53,WSW,240,0.0,0.0,70,0.00,,OVC038,0.00,VWS V14.01,2013-11-24 15:22:00,
2013-11-24 10:27:00,19.5,11.0,30.53,WSW,243,0.0,0.0,69,0.00,,OVC038,0.00,VWS V14.01,2013-11-24 15:27:00,
2013-11-24 10:32:00,19.9,11.4,30.52,SW,223,0.0,0.0,69,0.00,,OVC038,0.00,VWS V14.01,2013-11-24 15:32:00,
2013-11-24 10:42:00,20.0,11.1,30.52,West,261,0.0,0.0,68,0.00,,OVC038,0.00,VWS V14.01,2013-11-24 15:42:00,
2013-11-24 10:47:00,20.3,11.8,30.53,WSW,244,0.0,0.0,69,0.00,,OVC038,0.00,VWS V14.01,2013-11-24 15:47:00,
2013-11-24 10:52:00,20.8,11.6,30.53,West,261,0.0,0.0,67,0.00,,OVC038,0.00,VWS V14.01,2013-11-24 15:52:00,
2013-11-24 10:57:00,21.0,11.8,30.53,West,272,0.0,0.0,67,0.00,,OVC038,0.00,VWS V14.01,2013-11-24 15:57:00,
2013-11-24 11:02:00,21.1,11.9,30.52,NW,306,0.0,0.0,67,0.00,,,0.00,VWS V14.01,2013-11-24 16:02:00,
2013-11-24 11:07:00,21.0,11.1,30.52,WNW,285,0.0,10.0,65,0.00,,,0.00,VWS V14.01,2013-11-24 16:07:00,
2013-11-24 11:12:00,21.3,12.1,30.52,SSW,213,0.0,0.0,67,0.00,,,0.00,VWS V14.01,2013-11-24 16:12:00,
2013-11-24 11:17:00,21.8,11.9,30.52,West,263,0.0,0.0,65,0.00,,,0.00,VWS V14.01,2013-11-24 16:17:00,
2013-11-24 11:22:00,21.6,11.0,30.52,WNW,299,0.0,0.0,63,0.00,,,0.00,VWS V14.01,2013-11-24 16:22:00,
2013-11-24 11:27:00,22.2,12.6,30.52,WSW,254,0.0,0.0,66,0.00,,,0.00,VWS V14.01,2013-11-24 16:27:00,
2013-11-24 11:32:00,21.8,11.5,30.52,West,265,0.0,0.0,64,0.00,,,0.00,VWS V14.01,2013-11-24 16:32:00,
2013-11-24 11:42:00,22.1,11.4,30.52,West,261,0.0,0.0,63,0.00,,,0.00,VWS V14.01,2013-11-24 16:42:00,
2013-11-24 11:47:00,22.1,11.8,30.51,West,277,0.0,7.0,64,0.00,,,0.00,VWS V14.01,2013-11-24 16:47:00,
2013-11-24 11:52:00,22.2,12.2,30.51,WSW,246,0.0,0.0,65,0.00,,,0.00,VWS V14.01,2013-11-24 16:52:00,
2013-11-24 11:57:00,22.9,11.8,30.51,NW,305,0.0,4.0,62,0.00,,,0.00,VWS V14.01,2013-11-24 16:57:00,
2013-11-24 12:02:00,22.5,11.8,30.51,West,268,0.0,0.0,63,0.00,,,0.00,VWS V14.01,2013-11-24 17:02:00,
2013-11-24 12:07:00,22.4,11.7,30.51,NW,305,0.0,0.0,63,0.00,,,0.00,VWS V14.01,2013-11-24 17:07:00,
2013-11-24 12:17:00,22.1,11.1,30.50,West,274,0.0,0.0,62,0.00,,,0.00,VWS V14.01,2013-11-24 17:17:00,
2013-11-24 12:22:00,22.2,11.2,30.50,WSW,254,0.0,0.0,62,0.00,,,0.00,VWS V14.01,2013-11-24 17:22:00,
2013-11-24 12:27:00,22.4,11.0,30.50,West,274,0.0,0.0,61,0.00,,,0.00,VWS V14.01,2013-11-24 17:27:00,
2013-11-24 12:32:00,22.4,11.4,30.49,West,277,0.0,0.0,62,0.00,,,0.00,VWS V14.01,2013-11-24 17:32:00,
2013-11-24 12:37:00,22.2,10.4,30.49,West,267,0.0,0.0,60,0.00,,,0.00,VWS V14.01,2013-11-24 17:37:00,
2013-11-24 12:47:00,22.4,10.3,30.49,West,280,0.0,0.0,59,0.00,,,0.00,VWS V14.01,2013-11-24 17:47:00,
2013-11-24 12:52:00,22.5,10.7,30.49,West,278,0.0,0.0,60,0.00,,,0.00,VWS V14.01,2013-11-24 17:52:00,
2013-11-24 12:57:00,22.7,10.2,30.49,West,272,2.0,10.0,58,0.00,,,0.00,VWS V14.01,2013-11-24 17:57:00,
2013-11-24 13:02:00,22.5,10.7,30.48,West,271,0.0,2.0,60,0.00,,OVC045,0.00,VWS V14.01,2013-11-24 18:02:00,
2013-11-24 13:12:00,22.5,10.4,30.48,West,267,0.0,0.0,59,0.00,,OVC045,0.00,VWS V14.01,2013-11-24 18:12:00,
2013-11-24 13:17:00,22.7,10.2,30.47,West,263,0.0,0.0,58,0.00,,OVC045,0.00,VWS V14.01,2013-11-24 18:17:00,
2013-11-24 13:27:00,23.2,10.6,30.47,SW,233,0.0,1.0,58,0.00,,OVC045,0.00,VWS V14.01,2013-11-24 18:27:00,
2013-11-24 13:32:00,23.3,10.7,30.46,WSW,256,1.0,1.0,58,0.00,,OVC045,0.00,VWS V14.01,2013-11-24 18:32:00,
2013-11-24 13:37:00,23.8,10.8,30.46,SSW,209,0.0,1.0,57,0.00,,OVC045,0.00,VWS V14.01,2013-11-24 18:37:00,
2013-11-24 13:42:00,23.8,11.2,30.46,SSW,208,0.0,0.0,58,0.00,,OVC045,0.00,VWS V14.01,2013-11-24 18:42:00,
2013-11-24 13:47:00,24.4,11.4,30.46,WSW,250,0.0,0.0,57,0.00,,OVC045,0.00,VWS V14.01,2013-11-24 18:47:00,
2013-11-24 13:52:00,23.6,10.6,30.46,West,274,0.0,7.0,57,0.00,,OVC045,0.00,VWS V14.01,2013-11-24 18:52:00,
2013-11-24 14:03:00,23.5,10.9,30.45,WSW,237,0.0,0.0,58,0.00,,BKN045,0.00,VWS V14.01,2013-11-24 19:03:00,
2013-11-24 14:12:00,23.8,10.8,30.45,WSW,239,0.0,0.0,57,0.00,,BKN045,0.00,VWS V14.01,2013-11-24 19:12:00,
2013-11-24 14:17:00,24.4,11.0,30.44,WSW,250,0.0,0.0,56,0.00,,BKN045,0.00,VWS V14.01,2013-11-24 19:17:00,
2013-11-24 14:22:00,24.5,10.7,30.44,SSW,208,0.0,0.0,55,0.00,,BKN045,0.00,VWS V14.01,2013-11-24 19:22:00,
2013-11-24 14:32:00,23.8,10.0,30.43,SW,216,0.0,2.0,55,0.00,,BKN045,0.00,VWS V14.01,2013-11-24 19:32:00,
2013-11-24 14:37:00,23.8,10.4,30.43,WSW,246,0.0,0.0,56,0.00,,BKN045,0.00,VWS V14.01,2013-11-24 19:37:00,
2013-11-24 14:42:00,24.1,10.7,30.43,SSW,209,0.0,0.0,56,0.00,,BKN045,0.00,VWS V14.01,2013-11-24 19:42:00,
2013-11-24 14:47:00,23.8,10.0,30.42,WSW,250,0.0,0.0,55,0.00,,BKN045,0.00,VWS V14.01,2013-11-24 19:47:00,
2013-11-24 14:52:00,24.4,11.0,30.42,SSW,200,0.0,0.0,56,0.00,,BKN045,0.00,VWS V14.01,2013-11-24 19:52:00,
2013-11-24 15:02:00,25.4,10.2,30.42,SW,219,0.0,0.0,52,0.00,,FEW027,0.00,VWS V14.01,2013-11-24 20:02:00,
2013-11-24 15:07:00,25.1,10.0,30.42,SW,217,4.0,6.0,52,0.00,,FEW027,0.00,VWS V14.01,2013-11-24 20:07:00,
2013-11-24 15:12:00,25.1,10.0,30.42,WSW,258,0.0,4.0,52,0.00,,FEW027,0.00,VWS V14.01,2013-11-24 20:12:00,
2013-11-24 15:17:00,25.3,9.7,30.42,SSW,209,0.0,0.0,51,0.00,,FEW027,0.00,VWS V14.01,2013-11-24 20:17:00,
2013-11-24 15:22:00,25.3,9.3,30.42,SW,216,0.0,0.0,50,0.00,,FEW027,0.00,VWS V14.01,2013-11-24 20:22:00,
2013-11-24 15:27:00,25.4,9.4,30.42,WNW,282,0.0,0.0,50,0.00,,FEW027,0.00,VWS V14.01,2013-11-24 20:27:00,
2013-11-24 15:32:00,25.3,9.3,30.42,West,277,0.0,0.0,50,0.00,,FEW027,0.00,VWS V14.01,2013-11-24 20:32:00,
2013-11-24 15:42:00,25.3,7.9,30.42,SW,220,0.0,0.0,47,0.00,,FEW027,0.00,VWS V14.01,2013-11-24 20:42:00,
2013-11-24 15:47:00,25.0,8.1,30.42,SW,232,0.0,0.0,48,0.00,,FEW027,0.00,VWS V14.01,2013-11-24 20:47:00,
2013-11-24 15:57:00,25.8,7.9,30.42,WSW,250,0.0,0.0,46,0.00,,FEW027,0.00,VWS V14.01,2013-11-24 20:57:00,
2013-11-24 16:02:00,25.1,6.3,30.42,West,261,0.0,0.0,44,0.00,,FEW027,0.00,VWS V14.01,2013-11-24 21:02:00,
2013-11-24 16:12:00,24.8,5.5,30.42,SW,232,0.0,0.0,43,0.00,,FEW027,0.00,VWS V14.01,2013-11-24 21:12:00,
2013-11-24 16:17:00,25.0,5.2,30.42,West,263,0.0,0.0,42,0.00,,FEW027,0.00,VWS V14.01,2013-11-24 21:17:00,
2013-11-24 16:22:00,25.1,4.7,30.42,SW,216,0.0,0.0,41,0.00,,FEW027,0.00,VWS V14.01,2013-11-24 21:22:00,
2013-11-24 16:27:00,25.4,3.9,30.42,SSW,213,0.0,0.0,39,0.00,,FEW027,0.00,VWS V14.01,2013-11-24 21:27:00,
2013-11-24 16:32:00,25.0,3.5,30.42,WSW,254,0.0,0.0,39,0.00,,FEW027,0.00,VWS V14.01,2013-11-24 21:32:00,
2013-11-24 16:42:00,25.1,3.6,30.42,WSW,256,0.0,0.0,39,0.00,,FEW027,0.00,VWS V14.01,2013-11-24 21:42:00,
2013-11-24 16:47:00,25.1,3.1,30.41,WSW,237,0.0,0.0,38,0.00,,FEW027,0.00,VWS V14.01,2013-11-24 21:47:00,
2013-11-24 16:52:00,25.0,2.4,30.41,WSW,237,0.0,1.0,37,0.00,,FEW027,0.00,VWS V14.01,2013-11-24 21:52:00,
2013-11-24 16:57:00,24.7,2.7,30.41,WSW,237,0.0,0.0,38,0.00,,FEW027,0.00,VWS V14.01,2013-11-24 21:57:00,
2013-11-24 17:02:00,24.8,1.6,30.41,WSW,237,0.0,2.0,36,0.00,,CLR,0.00,VWS V14.01,2013-11-24 22:02:00,
2013-11-24 17:12:00,23.9,0.8,30.41,SW,224,0.0,0.0,36,0.00,,CLR,0.00,VWS V14.01,2013-11-24 22:12:00,
2013-11-24 17:17:00,23.8,1.3,30.40,SSW,198,0.0,2.0,37,0.00,,CLR,0.00,VWS V14.01,2013-11-24 22:17:00,
2013-11-24 17:22:00,23.6,1.7,30.40,SW,219,0.0,0.0,38,0.00,,CLR,0.00,VWS V14.01,2013-11-24 22:22:00,
2013-11-24 17:27:00,23.5,2.2,30.40,SW,219,0.0,3.0,39,0.00,,CLR,0.00,VWS V14.01,2013-11-24 22:27:00,
2013-11-24 17:32:00,23.5,1.6,30.40,SW,219,0.0,0.0,38,0.00,,CLR,0.00,VWS V14.01,2013-11-24 22:32:00,
2013-11-24 17:37:00,23.3,1.5,30.40,SW,219,0.0,1.0,38,0.00,,CLR,0.00,VWS V14.01,2013-11-24 22:37:00,
2013-11-24 17:42:00,23.2,1.4,30.40,SW,219,0.0,0.0,38,0.00,,CLR,0.00,VWS V14.01,2013-11-24 22:42:00,
2013-11-24 17:47:00,23.0,1.8,30.40,SW,219,0.0,0.0,39,0.00,,CLR,0.00,VWS V14.01,2013-11-24 22:47:00,
2013-11-24 17:52:00,22.9,1.7,30.40,SW,219,0.0,0.0,39,0.00,,CLR,0.00,VWS V14.01,2013-11-24 22:52:00,
2013-11-24 18:02:00,22.5,1.8,30.39,SW,219,0.0,0.0,40,0.00,,CLR,0.00,VWS V14.01,2013-11-24 23:02:00,
2013-11-24 18:07:00,22.5,1.8,30.39,SW,219,0.0,0.0,40,0.00,,CLR,0.00,VWS V14.01,2013-11-24 23:07:00,
2013-11-24 18:12:00,22.4,1.8,30.39,SW,219,0.0,0.0,40,0.00,,CLR,0.00,VWS V14.01,2013-11-24 23:12:00,
2013-11-24 18:22:00,22.2,2.1,30.40,SW,219,0.0,0.0,41,0.00,,CLR,0.00,VWS V14.01,2013-11-24 23:22:00,
2013-11-24 18:27:00,21.9,1.8,30.40,SW,219,0.0,0.0,41,0.00,,CLR,0.00,VWS V14.01,2013-11-24 23:27:00,
2013-11-24 18:32:00,21.8,2.2,30.39,SW,219,0.0,0.0,42,0.00,,CLR,0.00,VWS V14.01,2013-11-24 23:32:00,
2013-11-24 18:42:00,21.6,3.1,30.39,SW,219,0.0,1.0,44,0.00,,CLR,0.00,VWS V14.01,2013-11-24 23:42:00,
2013-11-24 18:47:00,21.4,3.4,30.40,SW,219,0.0,1.0,45,0.00,,CLR,0.00,VWS V14.01,2013-11-24 23:47:00,
2013-11-24 18:52:00,21.3,3.3,30.40,SW,219,0.0,0.0,45,0.00,,CLR,0.00,VWS V14.01,2013-11-24 23:52:00,
2013-11-24 18:57:00,21.1,3.1,30.40,SW,219,0.0,0.0,45,0.00,,CLR,0.00,VWS V14.01,2013-11-24 23:57:00,
2013-11-24 19:02:00,21.1,3.6,30.39,SW,219,0.0,0.0,46,0.00,,CLR,0.00,VWS V14.01,2013-11-25 00:02:00,
2013-11-24 19:12:00,21.0,3.9,30.39,SW,219,0.0,0.0,47,0.00,,CLR,0.00,VWS V14.01,2013-11-25 00:12:00,
2013-11-24 19:17:00,20.8,4.2,30.39,SW,219,0.0,0.0,48,0.00,,CLR,0.00,VWS V14.01,2013-11-25 00:17:00,
2013-11-24 19:27:00,20.6,4.9,30.39,SW,219,0.0,0.0,50,0.00,,CLR,0.00,VWS V14.01,2013-11-25 00:27:00,
2013-11-24 19:32:00,20.5,4.8,30.39,SW,219,0.0,0.0,50,0.00,,CLR,0.00,VWS V14.01,2013-11-25 00:32:00,
2013-11-24 19:37:00,20.5,4.8,30.39,SW,219,0.0,0.0,50,0.00,,CLR,0.00,VWS V14.01,2013-11-25 00:37:00,
2013-11-24 19:42:00,20.5,5.3,30.39,SW,219,0.0,0.0,51,0.00,,CLR,0.00,VWS V14.01,2013-11-25 00:42:00,
2013-11-24 19:47:00,20.3,5.5,30.37,SW,219,0.0,0.0,52,0.00,,CLR,0.00,VWS V14.01,2013-11-25 00:47:00,
2013-11-24 19:52:00,20.3,5.5,30.37,SW,219,0.0,0.0,52,0.00,,CLR,0.00,VWS V14.01,2013-11-25 00:52:00,
2013-11-24 19:57:00,20.3,5.1,30.37,SW,219,0.0,1.0,51,0.00,,CLR,0.00,VWS V14.01,2013-11-25 00:57:00,
2013-11-24 20:07:00,20.2,5.4,30.37,SW,219,0.0,0.0,52,0.00,,CLR,0.00,VWS V14.01,2013-11-25 01:07:00,
2013-11-24 20:12:00,20.2,5.4,30.37,SW,219,0.0,0.0,52,0.00,,CLR,0.00,VWS V14.01,2013-11-25 01:12:00,
2013-11-24 20:17:00,20.2,5.4,30.37,SW,219,0.0,0.0,52,0.00,,CLR,0.00,VWS V14.01,2013-11-25 01:17:00,
2013-11-24 20:22:00,20.3,5.5,30.37,SW,219,0.0,0.0,52,0.00,,CLR,0.00,VWS V14.01,2013-11-25 01:22:00,
2013-11-24 20:27:00,20.3,5.1,30.37,SW,219,0.0,0.0,51,0.00,,CLR,0.00,VWS V14.01,2013-11-25 01:27:00,
2013-11-24 20:37:00,20.5,4.8,30.37,SW,219,0.0,0.0,50,0.00,,CLR,0.00,VWS V14.01,2013-11-25 01:37:00,
2013-11-24 20:47:00,20.6,4.0,30.36,SW,219,0.0,0.0,48,0.00,,CLR,0.00,VWS V14.01,2013-11-25 01:47:00,
2013-11-24 20:52:00,20.6,4.0,30.36,SSW,202,0.0,0.0,48,0.00,,CLR,0.00,VWS V14.01,2013-11-25 01:52:00,
2013-11-24 20:57:00,20.6,3.6,30.36,SSW,205,0.0,0.0,47,0.00,,CLR,0.00,VWS V14.01,2013-11-25 01:57:00,
2013-11-24 21:07:00,20.6,3.6,30.35,SSW,208,0.0,0.0,47,0.00,,CLR,0.00,VWS V14.01,2013-11-25 02:07:00,
2013-11-24 21:12:00,20.5,3.9,30.35,SSW,208,0.0,0.0,48,0.00,,CLR,0.00,VWS V14.01,2013-11-25 02:12:00,
2013-11-24 21:17:00,20.3,3.8,30.35,SSW,208,0.0,0.0,48,0.00,,CLR,0.00,VWS V14.01,2013-11-25 02:17:00,
2013-11-24 21:22:00,20.3,3.8,30.35,SSW,208,0.0,0.0,48,0.00,,CLR,0.00,VWS V14.01,2013-11-25 02:22:00,
2013-11-24 21:28:00,20.5,3.9,30.35,SSW,209,0.0,0.0,48,0.00,,CLR,0.00,VWS V14.01,2013-11-25 02:28:00,
2013-11-24 21:33:00,20.3,4.2,30.35,SSW,209,0.0,0.0,49,0.00,,CLR,0.00,VWS V14.01,2013-11-25 02:33:00,
2013-11-24 21:42:00,20.5,3.9,30.35,SSW,209,0.0,0.0,48,0.00,,CLR,0.00,VWS V14.01,2013-11-25 02:42:00,
2013-11-24 21:47:00,20.5,3.9,30.34,SW,216,0.0,0.0,48,0.00,,CLR,0.00,VWS V14.01,2013-11-25 02:47:00,
2013-11-24 21:52:00,20.5,3.9,30.34,SSW,200,0.0,0.0,48,0.00,,CLR,0.00,VWS V14.01,2013-11-25 02:52:00,
2013-11-24 21:57:00,20.3,3.8,30.34,SSW,203,0.0,0.0,48,0.00,,CLR,0.00,VWS V14.01,2013-11-25 02:57:00,
2013-11-24 22:02:00,20.3,4.2,30.34,SSW,205,0.0,0.0,49,0.00,,CLR,0.00,VWS V14.01,2013-11-25 03:02:00,
2013-11-24 22:07:00,20.3,4.2,30.34,SSW,205,0.0,0.0,49,0.00,,CLR,0.00,VWS V14.01,2013-11-25 03:07:00,
2013-11-24 22:12:00,20.2,4.6,30.34,SSW,205,0.0,0.0,50,0.00,,CLR,0.00,VWS V14.01,2013-11-25 03:12:00,
2013-11-24 22:22:00,20.2,4.6,30.33,SSW,213,0.0,0.0,50,0.00,,CLR,0.00,VWS V14.01,2013-11-25 03:22:00,
2013-11-24 22:32:00,19.9,5.1,30.33,SSW,203,0.0,0.0,52,0.00,,CLR,0.00,VWS V14.01,2013-11-25 03:32:00,
2013-11-24 22:37:00,19.9,5.1,30.33,SSW,203,0.0,0.0,52,0.00,,CLR,0.00,VWS V14.01,2013-11-25 03:37:00,
2013-11-24 22:42:00,19.7,4.9,30.33,SSW,203,0.0,0.0,52,0.00,,CLR,0.00,VWS V14.01,2013-11-25 03:42:00,
2013-11-24 22:47:00,19.5,4.8,30.32,SSW,203,0.0,1.0,52,0.00,,CLR,0.00,VWS V14.01,2013-11-25 03:47:00,
2013-11-24 22:52:00,19.5,5.2,30.32,South,191,0.0,1.0,53,0.00,,CLR,0.00,VWS V14.01,2013-11-25 03:52:00,
2013-11-24 22:57:00,19.5,5.2,30.32,SSW,200,0.0,0.0,53,0.00,,CLR,0.00,VWS V14.01,2013-11-25 03:57:00,
2013-11-24 23:02:00,19.7,5.3,30.32,SSW,200,0.0,0.0,53,0.00,,CLR,0.00,VWS V14.01,2013-11-25 04:02:00,
2013-11-24 23:07:00,19.7,5.8,30.32,SSW,195,0.0,0.0,54,0.00,,CLR,0.00,VWS V14.01,2013-11-25 04:07:00,
2013-11-24 23:13:00,19.5,6.0,30.32,SSW,195,0.0,0.0,55,0.00,,CLR,0.00,VWS V14.01,2013-11-25 04:13:00,
2013-11-24 23:22:00,19.5,6.0,30.32,SSW,195,0.0,0.0,55,0.00,,CLR,0.00,VWS V14.01,2013-11-25 04:22:00,
2013-11-24 23:27:00,19.5,6.4,30.32,SSW,195,0.0,0.0,56,0.00,,CLR,0.00,VWS V14.01,2013-11-25 04:27:00,
2013-11-24 23:32:00,19.7,6.2,30.32,SSW,205,0.0,0.0,55,0.00,,CLR,0.00,VWS V14.01,2013-11-25 04:32:00,
2013-11-24 23:37:00,19.9,6.3,30.32,SSW,208,0.0,0.0,55,0.00,,CLR,0.00,VWS V14.01,2013-11-25 04:37:00,
2013-11-24 23:42:00,19.7,6.6,30.32,SSW,202,0.0,0.0,56,0.00,,CLR,0.00,VWS V14.01,2013-11-25 04:42:00,
2013-11-24 23:47:00,19.7,6.6,30.31,SSW,200,0.0,0.0,56,0.00,,CLR,0.00,VWS V14.01,2013-11-25 04:47:00,
2013-11-24 23:52:00,19.5,6.8,30.31,SSW,203,0.0,0.0,57,0.00,,CLR,0.00,VWS V14.01,2013-11-25 04:52:00,
2013-11-24 23:57:00,19.5,7.1,30.31,SSW,195,0.0,0.0,58,0.00,,CLR,0.00,VWS V14.01,2013-11-25 04:57:00,